User: anonymous
Location: Killarney Provincial Park Observatory
(46.0124°N, 81.4000°W)
Time: 23:36:39
(UTC-04:00)
Language:

Iridium 22 - Orbit

View from above orbital plane
View from above orbital plane
View from above satellite
View from above satellite

Ground track
Ground track

The orbit data is extracted from the following two-line orbital elements,

1 24907U 97043E   14260.45844256  .00000374  00000-0  12646-3 0  9666
2 24907 086.3974 315.5652 0002364 108.8655 027.2647 14.34220058893968
Epoch (UTC): 17 September 2014 11:00:09
Eccentricity: 0.0002364
inclination: 86.3974°
perigee height: 776 km
apogee height: 779 km
right ascension of ascending node: 315.5652°
argument of perigee: 108.8655°
revolutions per day: 14.34220058
mean anomaly at epoch: 27.2647°
orbit number at epoch: 89396

The dashed part of the orbit path shows where the satellite is in the earth's shadow,  

DLR